Location: Sungai Liu
(2.3667°N, 113.8667°E)
Time: 13:26:46
(UTC+00:00)

Meteor 1-20 Rocket - Pass Details

Date: 20 May 2022
Orbit: 819 x 892 km, 81.2° (Epoch: 07 July)

Event Time Altitude Azimuth Distance (km) Brightness Sun altitude
Rises 12:29:06 0° 353° (N) 3,375 7.7 -28.9°
Reaches altitude 10° 12:31:31 10° 352° (N) 2,433 6.9 -29.4°
Enters shadow 12:36:04 61° 335° (NNW) 930 4.5 -30.5°
